[[{"header":{"parameterUnit":"m.s-1","parameterCategory":1,"la1":30.2991,"la2":30.254,"lo1":-89.0895,"lo2":-89.0444,"dy":0.0017,"dx":0.0017,"nx":28,"ny":28,"refTime":"2025-06-08T21:00:00:Z","depth":0,"parameterNumber":2,"parameterNumberName":"U-component_of_WINDS"},"data":[0,0,0,0,0,0,0,0,0,0,0,0,0,0,0,0,0,0,0,0,0,0,0,0,0,0,0,0,0,0,0,0,0,0,0,0,0,0,0,0,0,0,0,0,0,0,0,0,0,0,0,0,0,0,0,0,0,0,2.58,2.5801,0,2.5896,2.5897,2.5898,2.5842,2.584,2.5837,2.5834,2.5939,2.5944,2.5949,0,0,0,0,0,0,0,0,0,0,0,0,0,2.5572,2.5577,2.5799,2.5801,2.5802,2.5896,2.5897,2.5899,2.5843,2.584,2.5836,2.5833,2.5937,2.5943,2.595,0,0,0,0,0,0,0,0,0,0,0,0,0,2.567,2.5578,2.5799,2.5785,2.5785,2.5896,2.5897,2.5899,2.5844,2.584,2.5835,2.5832,2.5935,2.5943,2.595,2.6082,0,0,2.5975,2.5978,0,0,0,0,0,0,0,0,2.5665,2.5679,2.5786,2.5786,2.5786,2.5853,2.5855,2.596,2.5845,2.5822,2.5834,2.583,2.5914,2.5923,2.5951,2.6087,2.6091,2.5976,2.598,2.5984,2.5986,0,0,0,0,0,0,0,2.5658,2.5674,2.5838,2.5788,2.5788,2.5776,2.5785,2.5875,2.589,2.5823,2.5819,2.5831,2.5913,2.5943,2.5953,2.6093,2.5975,2.5982,2.5987,2.599,2.6343,2.6347,0,0,0,0,0,0,2.5651,2.5669,2.5835,2.5841,2.5714,2.5783,2.5794,2.5836,2.5888,2.5892,2.5835,2.5828,2.5931,2.5943,2.5956,2.6114,2.5984,2.5991,2.5996,2.6338,2.6344,2.6349,0,0,0,0,0,0,2.5647,2.5667,2.5831,2.5754,2.5774,2.5792,2.5839,2.584,2.587,2.5897,2.59,2.5862,2.5929,2.5945,2.6051,2.6117,2.5995,2.6002,2.6333,2.634,2.6346,2.643,0,0,0,0,0,0,2.564,2.5665,2.5714,2.5755,2.5778,2.5923,2.5843,2.5845,2.5883,2.5875,2.5924,2.5928,2.5927,2.6039,2.6059,2.6125,2.6008,2.6327,2.6336,2.6344,2.6422,2.6439,2.6454,0,0,0,0,0,2.5632,2.5735,2.5717,2.5737,2.5839,2.5926,2.594,2.5935,2.5888,2.5939,2.5956,2.5926,2.6106,2.605,2.6072,2.6142,2.6323,2.6333,2.6343,2.6414,2.6436,2.6453,0,0,0,0,0,0,2.5703,2.574,2.572,2.5839,2.588,2.5917,2.598,2.5957,2.6014,2.6005,2.5998,2.6009,2.612,2.6141,2.6079,2.6273,2.6207,2.6223,2.6254,2.6275,2.629,2.6283,2.6015,0,0,0,0,0,2.5732,2.5798,2.5827,2.5929,2.5951,2.5962,2.6,2.5992,2.6035,2.6053,2.6078,2.6122,2.6189,2.6233,2.6295,2.6424,2.6435,2.6483,2.6499,2.6513,2.6526,2.6597,2.6619,2.6382,2.6382,2.6382,0,0,2.5793,2.5821,2.5864,2.5944,2.5975,2.6045,2.5977,2.6054,2.6107,2.6065,2.6166,2.6187,2.6236,2.6354,2.6407,2.6375,2.6594,2.6526,2.6536,2.6542,2.661,2.6632,2.6652,2.6389,2.6388,2.6387,0,0,2.594,2.5968,2.6056,2.6088,2.6135,2.6142,2.6163,2.6204,2.6215,2.6316,2.6287,2.635,2.6465,2.6501,2.6534,2.6696,2.6671,2.6717,2.6802,2.6871,2.6889,2.6906,2.6964,2.6985,2.673,2.673,2.673,0,2.6011,2.6113,2.6104,2.6184,2.6221,2.6185,2.6275,2.6307,2.6373,2.64,2.6363,2.6506,2.6536,2.6663,2.6702,2.673,2.6756,2.6711,2.6887,2.6903,2.6919,2.6974,2.6996,2.6735,2.6735,2.6734,2.6734,0,2.6198,2.627,2.6336,2.6399,2.6443,2.6528,2.6533,2.6579,2.6569,2.658,2.6684,2.6719,2.6789,2.6818,2.6809,2.6944,2.6923,2.6887,2.6821,2.6947,2.6999,2.702,2.6743,2.6741,2.674,2.6738,0,0,2.6392,2.6449,2.6473,2.6502,2.6551,2.6608,2.6691,2.6758,2.6798,2.6845,2.6916,2.7014,2.698,2.7019,2.7013,2.7074,2.7201,2.703,2.7031,2.7061,2.7353,2.738,2.7405,2.7184,2.7188,2.7191,2.7349,0,2.6543,2.6687,2.6681,2.6817,2.6884,2.6851,2.6924,2.6964,2.6977,2.7037,2.7052,2.7122,2.7072,2.7095,2.7154,2.7173,2.7259,2.7161,2.7251,2.7255,2.724,2.7432,2.7461,2.7608,2.7369,2.7373,2.7375,0,2.6737,2.6789,2.6931,2.6971,2.6999,2.7065,2.7126,2.7183,2.7228,2.7233,2.7276,2.7261,2.7348,2.728,2.74,2.7333,2.737,2.7385,2.7391,2.7399,2.7323,2.7446,2.7654,2.7677,2.7407,2.7405,2.7402,0,2.6865,2.6971,2.7069,2.7095,2.7144,2.7191,2.7214,2.7254,2.7295,2.7349,2.7375,2.7439,2.7474,2.7525,2.7528,2.7478,2.765,2.7582,2.7658,2.7658,2.7696,2.7694,2.7914,2.7719,2.7719,2.7718,2.7718,0,2.7034,2.7122,2.7128,2.7188,2.7287,2.7281,2.7379,2.7397,2.7434,2.7499,2.7475,2.7537,2.7537,2.7601,2.7604,2.7704,2.772,2.7728,2.7728,2.773,2.773,2.7755,2.7745,2.7724,2.7723,2.7722,2.7721,0,2.7194,2.72,2.7306,2.7344,2.7355,2.7426,2.7459,2.7518,2.7529,2.7612,2.7631,2.7649,2.7723,2.7731,2.7817,2.7819,2.794,2.7929,2.7924,2.7923,2.7999,2.7992,2.8243,2.8276,2.8059,2.8061,2.8063,0,2.7301,2.7368,2.7413,2.7454,2.7479,2.7546,2.7586,2.7584,2.7628,2.7684,2.7736,2.7807,2.7864,2.7984,2.8006,2.8072,2.8063,2.8146,2.8073,2.8073,2.8065,2.8061,2.8068,2.8161,2.8163,2.8165,2.8167,0,2.7491,2.7491,2.755,2.7611,2.766,2.7709,2.7754,2.7789,2.7792,2.7843,2.7918,2.7962,2.805,2.8121,2.8186,2.8212,2.8191,2.819,2.8211,2.8214,2.8209,2.8214,2.7964,2.8184,2.8182,2.8181,2.818,2.8179,2.7628,2.7686,2.7727,2.7794,2.7828,2.787,2.7927,2.7945,2.8007,2.8077,2.8072,2.8155,2.8199,2.8284,2.8314,2.838,2.8353,2.8383,2.8391,2.8399,2.8407,2.8198,2.8392,2.8392,2.8391,2.8391,2.839,0,2.7818,2.7842,2.7904,2.7967,2.802,2.7994,2.8043,2.809,2.8162,2.8205,2.8261,2.8347,2.8416,2.8444,2.8512,2.8559,2.8552,2.8578,2.8574,2.8581,2.8427,2.8402,2.8583,2.8583,2.8583,2.8583,2.8583,2.8583,2.7922,2.802,2.8025,2.8139,2.8164,2.8243,2.8273,2.8314,2.8347,2.8444,2.8501,2.8518,2.8555,2.8626,2.8689,2.8695,2.8722,2.8752,2.8755,2.8611,2.8592,2.8573,2.8549,2.8758,2.8758,2.8903,2.8904,2.8905]},{"header":{"parameterUnit":"m.s-1","parameterCategory":1,"la1":30.2991,"la2":30.254,"lo1":-89.0895,"lo2":-89.0444,"dy":0.0017,"dx":0.0017,"nx":28,"ny":28,"refTime":"2025-06-08T21:00:00:Z","depth":0,"parameterNumber":3,"parameterNumberName":"V-component_of_WINDS"},"data":[0,0,0,0,0,0,0,0,0,0,0,0,0,0,0,0,0,0,0,0,0,0,0,0,0,0,0,0,0,0,0,0,0,0,0,0,0,0,0,0,0,0,0,0,0,0,0,0,0,0,0,0,0,0,0,0,0,0,7.934,7.9342,0,7.9567,7.9569,7.9572,7.9553,7.955,7.9546,7.9543,7.9765,7.9774,7.9783,0,0,0,0,0,0,0,0,0,0,0,0,0,7.8879,7.8888,7.9339,7.9342,7.9345,7.9566,7.9569,7.9572,7.9554,7.9549,7.9545,7.9541,7.9762,7.9773,7.9784,0,0,0,0,0,0,0,0,0,0,0,0,0,7.909,7.8891,7.9339,7.9363,7.9367,7.9566,7.9569,7.9573,7.9554,7.9549,7.9544,7.9539,7.9758,7.9772,7.9785,7.9971,0,0,7.9827,7.9833,0,0,0,0,0,0,0,0,7.9078,7.9107,7.9356,7.9361,7.9367,7.9527,7.9488,7.9706,7.9556,7.9483,7.9543,7.9537,7.9689,7.9708,7.9761,7.9982,7.9991,7.9828,7.9836,7.9842,7.9846,0,0,0,0,0,0,0,7.9063,7.9097,7.9429,7.936,7.9366,7.9359,7.9383,7.953,7.9611,7.9489,7.9488,7.9516,7.9691,7.9748,7.9767,7.9995,7.9828,7.984,7.9848,7.9853,8.0378,8.0383,0,0,0,0,0,0,7.9045,7.9085,7.9422,7.9436,7.9207,7.9371,7.9398,7.948,7.961,7.9625,7.952,7.9514,7.9728,7.9751,7.9774,8.0001,7.9842,7.9855,7.9862,8.0372,8.0379,8.0385,0,0,0,0,0,0,7.9035,7.9075,7.9412,7.926,7.9303,7.9385,7.9477,7.9487,7.9545,7.9634,7.9647,7.9565,7.9725,7.9755,7.9923,8.0008,7.9861,7.9873,8.0365,8.0374,8.0382,8.0455,0,0,0,0,0,0,7.9022,7.9072,7.9146,7.9262,7.9311,7.9561,7.9482,7.9495,7.957,7.9564,7.9679,7.9693,7.9723,7.9903,7.9937,8.0024,7.9884,8.0358,8.0369,8.0379,8.0446,8.0465,8.0482,0,0,0,0,0,7.9005,7.9155,7.915,7.919,7.9406,7.9566,7.9593,7.9628,7.9577,7.965,7.9707,7.9689,7.9994,7.992,7.9958,8.0051,8.0353,8.0366,8.0379,8.0437,8.0462,8.0482,0,0,0,0,0,0,7.9043,7.9171,7.9166,7.9359,7.9452,7.9563,7.9657,7.9652,7.976,7.9749,7.9784,7.981,7.9979,8.0032,7.9948,8.0238,8.0166,8.0187,8.0198,8.0221,8.0239,8.0223,7.9895,0,0,0,0,0,7.9074,7.9197,7.93,7.946,7.9508,7.9574,7.9645,7.9664,7.9761,7.9799,7.9868,7.9959,8.0076,8.0151,8.0263,8.0453,8.0477,8.0535,8.0554,8.0568,8.0586,8.0689,8.0716,8.0428,8.0428,8.0428,0,0,7.9138,7.9223,7.9298,7.947,7.9544,7.9668,7.9607,7.974,7.9831,7.9818,7.9982,8.0036,8.014,8.032,8.0402,8.0369,8.0671,8.0585,8.0596,8.0606,8.0705,8.0733,8.0757,8.0437,8.0435,8.0434,0,0,7.9319,7.9397,7.9539,7.9615,7.973,7.9774,7.9808,7.992,7.9956,8.0122,8.0115,8.0221,8.0421,8.0495,8.0559,8.0769,8.0756,8.0804,8.0899,8.1,8.1022,8.1042,8.1116,8.1143,8.0821,8.0821,8.0821,0,7.9384,7.9573,7.9611,7.9746,7.9821,7.9818,7.996,8.0031,8.0175,8.0225,8.0186,8.0438,8.0507,8.0704,8.0756,8.0808,8.0845,8.0791,8.1017,8.1037,8.1057,8.1127,8.1155,8.0826,8.0826,8.0825,8.0825,0,7.9646,7.9778,7.9877,8.0021,8.0107,8.0244,8.03,8.0382,8.0393,8.0439,8.0607,8.0691,8.0819,8.0867,8.0878,8.1066,8.1042,8.1009,8.0938,8.1089,8.1156,8.1183,8.0834,8.0832,8.083,8.0829,0,0,7.9857,8.0021,8.0057,8.0122,8.0249,8.0349,8.0485,8.0615,8.0684,8.0782,8.0896,8.1065,8.1037,8.1109,8.1128,8.1216,8.1376,8.1173,8.1176,8.1207,8.1587,8.161,8.1641,8.1368,8.1374,8.1378,8.1578,0,8.005,8.0296,8.0334,8.0549,8.067,8.0669,8.0787,8.0876,8.0923,8.1029,8.1078,8.1198,8.1152,8.1196,8.1283,8.1338,8.1452,8.1324,8.1471,8.1476,8.1446,8.1676,8.1701,8.1886,8.1604,8.1609,8.1612,0,8.0309,8.0419,8.0647,8.0758,8.081,8.0917,8.1038,8.1141,8.124,8.1268,8.135,8.1358,8.1496,8.1419,8.1608,8.152,8.1582,8.1618,8.1626,8.164,8.1553,8.1696,8.1946,8.1973,8.1654,8.165,8.1647,0,8.0439,8.0644,8.0807,8.0863,8.0996,8.1071,8.1129,8.1224,8.1299,8.1404,8.1453,8.1571,8.1635,8.1725,8.1763,8.1704,8.1949,8.1876,8.1974,8.1973,8.2025,8.2021,8.2288,8.2066,8.2066,8.2065,8.2064,0,8.065,8.079,8.0868,8.0968,8.1123,8.1164,8.1315,8.137,8.1455,8.1563,8.1568,8.1669,8.1714,8.1821,8.1851,8.2003,8.2031,8.2055,8.2062,8.2055,8.2052,8.2096,8.2084,8.2072,8.2071,8.2069,8.2068,0,8.0822,8.088,8.1058,8.1171,8.1202,8.1311,8.1406,8.1502,8.1548,8.1685,8.1719,8.1791,8.1917,8.1965,8.2117,8.2137,8.2312,8.2308,8.228,8.2281,8.2376,8.2367,8.268,8.2723,8.2473,8.2475,8.2477,0,8.0953,8.1061,8.1187,8.1262,8.1324,8.1444,8.1522,8.1565,8.1645,8.1767,8.1847,8.1974,8.2078,8.2278,8.2341,8.2457,8.2456,8.2558,8.2473,8.2463,8.2457,8.245,8.246,8.2573,8.2575,8.2578,8.2579,0,8.118,8.1204,8.1318,8.1443,8.1537,8.1636,8.1732,8.1792,8.1849,8.1938,8.207,8.215,8.2308,8.2432,8.2552,8.2607,8.2603,8.2606,8.2634,8.2628,8.2608,8.262,8.2322,8.2598,8.2596,8.2595,8.2594,8.2593,8.1335,8.1431,8.1535,8.1662,8.174,8.183,8.1925,8.1985,8.2096,8.2231,8.2248,8.2388,8.2483,8.2644,8.2705,8.2813,8.2785,8.2827,8.2837,8.2847,8.2854,8.2591,8.2835,8.2834,8.2834,8.2833,8.2833,0,8.1562,8.1629,8.1746,8.1882,8.1981,8.1972,8.2078,8.216,8.2285,8.2376,8.2479,8.2629,8.275,8.2823,8.2943,8.3015,8.3016,8.3046,8.304,8.3053,8.2872,8.2835,8.3043,8.3043,8.3043,8.3043,8.3043,8.3043,8.1691,8.1854,8.1889,8.2089,8.2154,8.2295,8.2356,8.2438,8.2511,8.2679,8.2782,8.283,8.2913,8.304,8.3149,8.3167,8.3211,8.3243,8.3258,8.3087,8.3066,8.3045,8.301,8.3252,8.3252,8.343,8.3432,8.3433]}]]